Погода в Шептуховке

Россия / Курская область     51°26′37″N   35°09′59″E
темп.,
°C
ветер,
м/с
пор.,
м/с
влажн.,
%
обл.,
%
осадки,
мм/ч
давл.,
гПа
погр.,
м
22 января, сб
сб2200:00−3юз81493100 0.4 1002695
03:00−3юз61295100 0.8 1003636
06:00−5юз51096100 0.4 1003405
09:00−5юз499699 0.9 1005345
12:00−4юз489593 0.3 1007421
15:00−3юз469096 0.3 1008610
18:00−7ю3498100 0.1 101057
21:00−7ююз359781 0.2 101297
23 января, вс
вс2300:00−9ююз359775 0.1 101466
03:00−12ю349990 0.1 101640
06:00−13ююв229889 0.1 101833
09:00−12вюв349771 0.1 102164
12:00−8в349797 0.0 1023175
15:00−7всв359584 0.1 1025266
18:00−11св379897 0.0 102799
21:00−14св389773 0.0 1029112
24 января, пн
пн2400:00−14ссв4119748 0.0 1030165
03:00−12ссв5149494 0.0 1030265
06:00−11ссв6169194 0.0 1029341
09:00−9ссв71594100 0.1 1030441
12:00−7св61393100 0.3 1029475
15:00−6св61192100 0.4 1028488
18:00−9ссв5109587 0.0 1029235
21:00−11св4997100 0.1 1029168
25 января, вт
вт2500:00−12св3797100 0.0 1028138
03:00−14св3698100 0.0 102886
06:00−14св3598100 0.0 102696
09:00−13св2597100 0.0 1025106
12:00−9св2293100 0.1 1024189
15:00−8с1192100 0.4 1022217
18:00−8ссв0097100 0.4 102126
21:00−9юз1197100 0.9 102010
26 января, ср
ср2600:00−9ююз2396100 0.3 101984
03:00−10ююз2396100 0.7 101887
06:00−9ююз2496100 0.6 1017226
09:00−9ююз2596100 1.3 1017268
12:00−8ююз3493100 0.4 1017351
15:00−7юз3488100 0.6 1016468
18:00−11ю1197100 0.0 101710
21:00−11ююв2298100 0.0 101729